Time,TemperatureF,DewpointF,PressureIn,WindDirection,WindDirectionDegrees,WindSpeedMPH,WindSpeedGustMPH,Humidity,HourlyPrecipIn,Conditions,Clouds,dailyrainin,SoftwareType,DateUTC
2013-08-03 00:02:00,71.0,64.0,-100.00,SW,235,6.0,9.0,77,0.00,,,-99.99,,2013-08-03 04:02:00,
2013-08-03 00:12:00,71.0,65.0,-100.00,SW,225,8.0,12.0,80,0.55,,,-99.99,,2013-08-03 04:12:00,
2013-08-03 00:22:00,70.0,65.0,-100.00,SW,225,4.0,11.0,83,0.00,,,-99.99,,2013-08-03 04:22:00,
2013-08-03 00:32:00,70.0,64.0,-100.00,WSW,240,3.0,6.0,83,0.00,,,-99.99,,2013-08-03 04:32:00,
2013-08-03 00:43:00,69.0,64.0,-100.00,WSW,245,4.0,6.0,85,0.00,,,-99.99,,2013-08-03 04:43:00,
2013-08-03 01:02:00,69.0,64.0,-100.00,WSW,250,4.0,7.0,84,0.00,,,-99.99,,2013-08-03 05:02:00,
2013-08-03 01:12:00,69.0,65.0,-100.00,West,280,3.0,6.0,87,1.10,,,-99.99,,2013-08-03 05:12:00,
2013-08-03 01:32:00,69.0,65.0,-100.00,NNE,20,1.0,6.0,89,0.00,,,-99.99,,2013-08-03 05:32:00,
2013-08-03 01:42:00,69.0,65.0,-100.00,SW,230,3.0,6.0,89,0.00,,,-99.99,,2013-08-03 05:42:00,
2013-08-03 01:52:00,68.0,66.0,-100.00,NW,310,2.0,6.0,92,1.10,,,-99.99,,2013-08-03 05:52:00,
2013-08-03 02:02:00,68.0,65.0,-100.00,SW,235,5.0,7.0,91,0.00,,,-99.99,,2013-08-03 06:02:00,
2013-08-03 02:33:00,66.0,64.0,-100.00,West,265,9.0,16.0,94,2.83,,,-99.99,,2013-08-03 06:33:00,
2013-08-03 02:42:00,65.0,64.0,-100.00,West,270,6.0,19.0,94,1.10,,,-99.99,,2013-08-03 06:42:00,
2013-08-03 02:52:00,65.0,64.0,-100.00,WSW,255,4.0,6.0,95,1.10,,,-99.99,,2013-08-03 06:52:00,
2013-08-03 03:02:00,65.0,64.0,-100.00,SE,140,0.0,4.0,96,0.00,,,-99.99,,2013-08-03 07:02:00,
2013-08-03 03:12:00,66.0,64.0,-100.00,ENE,60,1.0,2.0,96,0.00,,,-99.99,,2013-08-03 07:12:00,
2013-08-03 03:22:00,66.0,64.0,-100.00,ENE,60,1.0,2.0,96,0.00,,,-99.99,,2013-08-03 07:22:00,
2013-08-03 03:32:00,66.0,65.0,-100.00,SSE,150,2.0,3.0,96,0.00,,,-99.99,,2013-08-03 07:32:00,
2013-08-03 03:43:00,66.0,65.0,-100.00,South,170,4.0,10.0,96,1.10,,,-99.99,,2013-08-03 07:43:00,
2013-08-03 03:52:00,66.0,64.0,-100.00,SW,220,9.0,14.0,92,1.10,,,-99.99,,2013-08-03 07:52:00,
2013-08-03 04:02:00,66.0,64.0,-100.00,SW,220,9.0,14.0,92,1.10,,,-99.99,,2013-08-03 08:02:00,
2013-08-03 04:12:00,64.0,63.0,-100.00,West,265,4.0,7.0,95,1.10,,,-99.99,,2013-08-03 08:12:00,
2013-08-03 04:22:00,64.0,63.0,-100.00,WNW,285,1.0,2.0,97,0.00,,,-99.99,,2013-08-03 08:22:00,
2013-08-03 04:32:00,64.0,63.0,-100.00,WNW,285,1.0,2.0,96,0.00,,,-99.99,,2013-08-03 08:32:00,
2013-08-03 04:43:00,64.0,63.0,-100.00,WNW,285,1.0,2.0,96,0.00,,,-99.99,,2013-08-03 08:43:00,
2013-08-03 05:02:00,65.0,64.0,-100.00,SE,135,0.0,1.0,97,0.55,,,-99.99,,2013-08-03 09:02:00,
2013-08-03 05:12:00,64.0,64.0,-100.00,South,180,1.0,2.0,97,1.10,,,-99.99,,2013-08-03 09:12:00,
2013-08-03 05:22:00,65.0,64.0,-100.00,ESE,110,0.0,1.0,97,0.55,,,-99.99,,2013-08-03 09:22:00,
2013-08-03 05:32:00,64.0,64.0,-100.00,SSW,195,1.0,1.0,98,0.00,,,-99.99,,2013-08-03 09:32:00,
2013-08-03 05:43:00,64.0,63.0,-100.00,SSW,200,1.0,4.0,96,0.00,,,-99.99,,2013-08-03 09:43:00,
2013-08-03 05:53:00,64.0,64.0,-100.00,West,270,1.0,2.0,96,0.55,,,-99.99,,2013-08-03 09:53:00,
2013-08-03 06:02:00,65.0,63.0,-100.00,SSW,205,2.0,3.0,95,0.55,,,-99.99,,2013-08-03 10:02:00,
2013-08-03 06:22:00,65.0,63.0,-100.00,WSW,240,2.0,5.0,95,1.10,,,-99.99,,2013-08-03 10:22:00,
2013-08-03 06:32:00,64.0,63.0,-100.00,SW,215,3.0,4.0,95,0.00,,,-99.99,,2013-08-03 10:32:00,
2013-08-03 06:42:00,64.0,63.0,-100.00,SW,225,2.0,4.0,95,0.55,,,-99.99,,2013-08-03 10:42:00,
2013-08-03 07:32:00,65.0,63.0,-100.00,SW,235,3.0,4.0,95,0.00,,,-99.99,,2013-08-03 11:32:00,
2013-08-03 07:43:00,65.0,63.0,-100.00,WSW,240,2.0,4.0,95,0.00,,,-99.99,,2013-08-03 11:43:00,
2013-08-03 08:03:00,65.0,64.0,-100.00,SW,225,4.0,6.0,95,0.00,,,-99.99,,2013-08-03 12:03:00,
2013-08-03 09:02:00,65.0,64.0,-100.00,SSW,205,2.0,6.0,96,0.00,,,-99.99,,2013-08-03 13:02:00,
2013-08-03 09:22:00,65.0,64.0,-100.00,SSW,210,1.0,4.0,96,2.24,,,-99.99,,2013-08-03 13:22:00,
2013-08-03 09:52:00,65.0,64.0,-100.00,SW,215,1.0,2.0,97,0.55,,,-99.99,,2013-08-03 13:52:00,
2013-08-03 10:02:00,65.0,65.0,-100.00,SW,215,1.0,4.0,98,0.00,,,-99.99,,2013-08-03 14:02:00,
2013-08-03 10:33:00,65.0,65.0,-100.00,SW,235,1.0,3.0,98,0.00,,,-99.99,,2013-08-03 14:33:00,
2013-08-03 10:42:00,66.0,65.0,-100.00,WSW,245,1.0,3.0,97,0.00,,,-99.99,,2013-08-03 14:42:00,
2013-08-03 10:52:00,66.0,65.0,-100.00,WSW,245,1.0,4.0,97,0.00,,,-99.99,,2013-08-03 14:52:00,
2013-08-03 11:02:00,67.0,66.0,-100.00,WSW,240,4.0,7.0,97,0.00,,,-99.99,,2013-08-03 15:02:00,
2013-08-03 11:12:00,67.0,66.0,-100.00,West,270,4.0,6.0,97,0.00,,,-99.99,,2013-08-03 15:12:00,
2013-08-03 11:23:00,67.0,66.0,-100.00,West,260,4.0,6.0,96,0.00,,,-99.99,,2013-08-03 15:23:00,
2013-08-03 11:32:00,67.0,67.0,-100.00,WSW,240,3.0,6.0,97,0.00,,,-99.99,,2013-08-03 15:32:00,
2013-08-03 11:43:00,68.0,67.0,-100.00,West,260,1.0,5.0,96,0.00,,,-99.99,,2013-08-03 15:43:00,
2013-08-03 11:53:00,68.0,67.0,-100.00,West,260,1.0,5.0,96,0.00,,,-99.99,,2013-08-03 15:53:00,
2013-08-03 12:02:00,69.0,67.0,-100.00,WNW,290,5.0,6.0,94,0.00,,,-99.99,,2013-08-03 16:02:00,
2013-08-03 12:12:00,69.0,67.0,-100.00,WNW,285,2.0,7.0,93,0.00,,,-99.99,,2013-08-03 16:12:00,
2013-08-03 12:23:00,70.0,67.0,-100.00,NNE,25,6.0,10.0,91,0.00,,,-99.99,,2013-08-03 16:23:00,
2013-08-03 12:33:00,68.0,66.0,-100.00,NE,40,3.0,9.0,95,0.00,,,-99.99,,2013-08-03 16:33:00,
2013-08-03 12:43:00,68.0,66.0,-100.00,NE,40,2.0,6.0,93,0.00,,,-99.99,,2013-08-03 16:43:00,
2013-08-03 12:53:00,70.0,66.0,-100.00,NE,40,2.0,5.0,89,0.00,,,-99.99,,2013-08-03 16:53:00,
2013-08-03 13:03:00,72.0,67.0,-100.00,NNE,15,2.0,4.0,85,0.00,,,-99.99,,2013-08-03 17:03:00,
2013-08-03 13:12:00,72.0,67.0,-100.00,ESE,115,1.0,5.0,85,0.00,,,-99.99,,2013-08-03 17:12:00,
2013-08-03 13:22:00,73.0,66.0,-100.00,ENE,70,2.0,6.0,79,0.00,,,-99.99,,2013-08-03 17:22:00,
2013-08-03 13:32:00,73.0,66.0,-100.00,NW,325,4.0,6.0,79,0.00,,,-99.99,,2013-08-03 17:32:00,
2013-08-03 13:43:00,73.0,66.0,-100.00,East,95,1.0,8.0,79,0.00,,,-99.99,,2013-08-03 17:43:00,
2013-08-03 13:52:00,74.0,68.0,-100.00,North,10,2.0,6.0,80,0.00,,,-99.99,,2013-08-03 17:52:00,
2013-08-03 14:02:00,74.0,67.0,-100.00,North,5,2.0,6.0,77,0.00,,,-99.99,,2013-08-03 18:02:00,
2013-08-03 14:12:00,76.0,67.0,-100.00,West,280,2.0,5.0,74,0.00,,,-99.99,,2013-08-03 18:12:00,
2013-08-03 14:22:00,76.0,66.0,-100.00,ENE,65,1.0,3.0,70,0.00,,,-99.99,,2013-08-03 18:22:00,
2013-08-03 14:32:00,75.0,65.0,-100.00,West,280,0.0,4.0,71,0.00,,,-99.99,,2013-08-03 18:32:00,
2013-08-03 14:43:00,78.0,67.0,-100.00,NW,310,2.0,5.0,70,0.00,,,-99.99,,2013-08-03 18:43:00,
2013-08-03 14:53:00,77.0,67.0,-100.00,NW,310,3.0,9.0,71,0.00,,,-99.99,,2013-08-03 18:53:00,
2013-08-03 15:03:00,78.0,68.0,-100.00,NNE,25,4.0,7.0,70,0.00,,,-99.99,,2013-08-03 19:03:00,
2013-08-03 15:12:00,76.0,66.0,-100.00,NNE,15,4.0,6.0,70,0.00,,,-99.99,,2013-08-03 19:12:00,
2013-08-03 15:22:00,78.0,67.0,-100.00,NE,45,2.0,4.0,67,0.00,,,-99.99,,2013-08-03 19:22:00,
2013-08-03 15:32:00,80.0,67.0,-100.00,SSE,155,2.0,4.0,64,0.00,,,-99.99,,2013-08-03 19:32:00,
2013-08-03 15:43:00,78.0,65.0,-100.00,WNW,295,3.0,6.0,64,0.00,,,-99.99,,2013-08-03 19:43:00,
2013-08-03 15:52:00,78.0,64.0,-100.00,NW,310,3.0,8.0,64,0.00,,,-99.99,,2013-08-03 19:52:00,
2013-08-03 16:02:00,78.0,64.0,-100.00,NW,310,4.0,6.0,63,0.00,,,-99.99,,2013-08-03 20:02:00,
2013-08-03 16:12:00,77.0,65.0,-100.00,WNW,285,1.0,4.0,65,0.00,,,-99.99,,2013-08-03 20:12:00,
2013-08-03 16:22:00,77.0,65.0,-100.00,West,260,4.0,6.0,67,0.00,,,-99.99,,2013-08-03 20:22:00,
2013-08-03 16:32:00,77.0,66.0,-100.00,WSW,245,4.0,7.0,70,0.00,,,-99.99,,2013-08-03 20:32:00,
2013-08-03 16:42:00,76.0,64.0,-100.00,WSW,250,5.0,6.0,67,0.00,,,-99.99,,2013-08-03 20:42:00,
2013-08-03 16:52:00,77.0,65.0,-100.00,West,265,6.0,9.0,66,0.00,,,-99.99,,2013-08-03 20:52:00,
2013-08-03 17:02:00,78.0,65.0,-100.00,West,260,2.0,6.0,66,0.00,,,-99.99,,2013-08-03 21:02:00,
2013-08-03 17:12:00,78.0,64.0,-100.00,West,265,4.0,7.0,62,0.00,,,-99.99,,2013-08-03 21:12:00,
2013-08-03 17:22:00,78.0,65.0,-100.00,SW,230,4.0,7.0,66,0.00,,,-99.99,,2013-08-03 21:22:00,
2013-08-03 17:32:00,80.0,63.0,-100.00,NW,310,3.0,9.0,57,0.00,,,-99.99,,2013-08-03 21:32:00,
2013-08-03 17:42:00,78.0,64.0,-100.00,West,275,2.0,4.0,61,0.00,,,-99.99,,2013-08-03 21:42:00,
2013-08-03 17:52:00,80.0,63.0,-100.00,WNW,290,3.0,8.0,55,0.00,,,-99.99,,2013-08-03 21:52:00,
2013-08-03 18:02:00,80.0,64.0,-100.00,NW,310,4.0,9.0,56,0.00,,,-99.99,,2013-08-03 22:02:00,
2013-08-03 18:12:00,81.0,62.0,-100.00,NW,305,2.0,9.0,53,0.00,,,-99.99,,2013-08-03 22:12:00,
2013-08-03 18:22:00,80.0,63.0,-100.00,NW,320,4.0,7.0,56,0.00,,,-99.99,,2013-08-03 22:22:00,
2013-08-03 18:33:00,79.0,62.0,-100.00,NW,315,4.0,9.0,55,0.00,,,-99.99,,2013-08-03 22:33:00,
2013-08-03 18:43:00,79.0,62.0,-100.00,NW,310,4.0,8.0,55,0.00,,,-99.99,,2013-08-03 22:43:00,
2013-08-03 18:52:00,79.0,63.0,-100.00,NW,320,2.0,7.0,57,0.00,,,-99.99,,2013-08-03 22:52:00,
2013-08-03 19:02:00,79.0,61.0,-100.00,NNW,330,4.0,8.0,54,0.00,,,-99.99,,2013-08-03 23:02:00,
2013-08-03 19:12:00,78.0,62.0,-100.00,North,10,4.0,10.0,56,0.00,,,-99.99,,2013-08-03 23:12:00,
2013-08-03 19:22:00,78.0,62.0,-100.00,NW,315,4.0,9.0,57,0.00,,,-99.99,,2013-08-03 23:22:00,
2013-08-03 19:32:00,77.0,61.0,-100.00,North,10,6.0,9.0,58,0.00,,,-99.99,,2013-08-03 23:32:00,
2013-08-03 19:43:00,77.0,61.0,-100.00,North,10,6.0,10.0,57,0.00,,,-99.99,,2013-08-03 23:43:00,
2013-08-03 19:52:00,77.0,62.0,-100.00,North,10,2.0,7.0,59,0.00,,,-99.99,,2013-08-03 23:52:00,
2013-08-03 20:03:00,76.0,62.0,-100.00,NNE,15,2.0,6.0,60,0.00,,,-99.99,,2013-08-04 00:03:00,
2013-08-03 20:12:00,76.0,60.0,-100.00,North,5,2.0,6.0,59,0.00,,,-99.99,,2013-08-04 00:12:00,
2013-08-03 20:22:00,75.0,61.0,-100.00,NE,40,1.0,4.0,60,0.00,,,-99.99,,2013-08-04 00:22:00,
2013-08-03 20:32:00,75.0,61.0,-100.00,North,0,1.0,3.0,62,0.00,,,-99.99,,2013-08-04 00:32:00,
2013-08-03 20:42:00,74.0,61.0,-100.00,NE,55,1.0,4.0,63,0.00,,,-99.99,,2013-08-04 00:42:00,
2013-08-03 20:53:00,73.0,61.0,-100.00,North,10,1.0,2.0,66,0.00,,,-99.99,,2013-08-04 00:53:00,
2013-08-03 21:02:00,73.0,61.0,-100.00,NNW,340,0.0,3.0,67,0.00,,,-99.99,,2013-08-04 01:02:00,
2013-08-03 21:12:00,72.0,61.0,-100.00,NE,35,1.0,2.0,68,0.00,,,-99.99,,2013-08-04 01:12:00,
2013-08-03 21:22:00,71.0,62.0,-100.00,ENE,75,2.0,2.0,73,0.00,,,-99.99,,2013-08-04 01:22:00,
2013-08-03 21:32:00,71.0,61.0,-100.00,North,0,1.0,2.0,71,0.00,,,-99.99,,2013-08-04 01:32:00,
2013-08-03 21:42:00,70.0,62.0,-100.00,ESE,105,0.0,1.0,76,0.00,,,-99.99,,2013-08-04 01:42:00,
2013-08-03 21:52:00,69.0,62.0,-100.00,WNW,285,0.0,1.0,78,0.00,,,-99.99,,2013-08-04 01:52:00,
2013-08-03 22:02:00,69.0,62.0,-100.00,NW,320,0.0,1.0,79,0.00,,,-99.99,,2013-08-04 02:02:00,
2013-08-03 22:12:00,67.0,62.0,-100.00,WNW,290,0.0,1.0,82,0.00,,,-99.99,,2013-08-04 02:12:00,
2013-08-03 22:22:00,67.0,62.0,-100.00,ENE,70,1.0,2.0,83,0.00,,,-99.99,,2013-08-04 02:22:00,
2013-08-03 22:32:00,67.0,62.0,-100.00,ENE,60,0.0,1.0,83,0.00,,,-99.99,,2013-08-04 02:32:00,
2013-08-03 22:42:00,67.0,62.0,-100.00,East,95,0.0,1.0,84,0.00,,,-99.99,,2013-08-04 02:42:00,
2013-08-03 22:52:00,67.0,62.0,-100.00,ENE,60,0.0,1.0,84,0.00,,,-99.99,,2013-08-04 02:52:00,
2013-08-03 23:02:00,66.0,62.0,-100.00,ESE,105,1.0,1.0,85,0.00,,,-99.99,,2013-08-04 03:02:00,
2013-08-03 23:12:00,66.0,62.0,-100.00,NE,50,0.0,1.0,86,0.00,,,-99.99,,2013-08-04 03:12:00,
2013-08-03 23:22:00,65.0,62.0,-100.00,NNE,20,0.0,1.0,87,0.00,,,-99.99,,2013-08-04 03:22:00,
2013-08-03 23:32:00,65.0,62.0,-100.00,NW,315,0.0,1.0,91,0.00,,,-99.99,,2013-08-04 03:32:00,
2013-08-03 23:42:00,64.0,62.0,-100.00,NE,40,0.0,1.0,90,0.00,,,-99.99,,2013-08-04 03:42:00,
2013-08-03 23:52:00,64.0,62.0,-100.00,NNE,20,1.0,1.0,92,0.00,,,-99.99,,2013-08-04 03:52:00,